2019/11/13 23:54,  0.943
2019/11/14 00:00,  0.929
2019/11/14 00:06,  0.905
2019/11/14 00:12,  0.869
2019/11/14 00:18,  0.878
2019/11/14 00:24,  0.932
2019/11/14 00:30,  0.907
2019/11/14 00:36,  1.000
2019/11/14 00:42,  0.967
2019/11/14 00:48,  1.009
2019/11/14 00:54,  0.917
2019/11/14 01:00,  1.029
2019/11/14 01:06,  1.039
2019/11/14 01:12,  0.947
2019/11/14 01:18,  1.030
2019/11/14 01:24,  1.029
2019/11/14 01:30,  1.031
2019/11/14 01:36,  0.910
2019/11/14 01:42,  0.900
2019/11/14 01:48,  0.882
2019/11/14 01:54,  0.857
2019/11/14 02:00,  0.954
2019/11/14 02:06,  0.915
2019/11/14 02:12,  0.857
2019/11/14 02:18,  1.003
2019/11/14 02:24,  1.034
2019/11/14 02:30,  1.051
2019/11/14 02:36,  0.991
2019/11/14 02:42,  0.999
2019/11/14 02:48,  1.009
2019/11/14 02:54,  0.911
2019/11/14 03:00,  0.921
2019/11/14 03:06,  0.902
2019/11/14 03:12,  0.823
2019/11/14 03:18,  0.871
2019/11/14 03:24,  0.862
2019/11/14 03:30,  0.846
2019/11/14 03:36,  0.845
2019/11/14 03:42,  0.955
2019/11/14 03:48,  0.987
2019/11/14 03:54,  0.979
2019/11/14 04:00,  1.051
2019/11/14 04:06,  1.056
2019/11/14 04:12,  0.913
2019/11/14 04:18,  0.860
2019/11/14 04:24,  0.875
2019/11/14 04:30,  0.888
2019/11/14 04:36,  0.903
2019/11/14 04:42,  0.861
2019/11/14 04:48,  0.919
2019/11/14 04:54,  0.945
2019/11/14 05:00,  0.950
2019/11/14 05:06,  0.984
2019/11/14 05:12,  0.945
2019/11/14 05:18,  0.902
2019/11/14 05:24,  0.884
2019/11/14 05:30,  0.900
2019/11/14 05:36,  0.907
2019/11/14 05:42,  0.916
2019/11/14 05:48,  0.839
2019/11/14 05:54,  0.913
2019/11/14 06:00,  0.907
2019/11/14 06:06,  0.911
2019/11/14 06:12,  0.902
2019/11/14 06:18,  0.796
2019/11/14 06:24,  0.933
2019/11/14 06:30,  0.931
2019/11/14 06:36,  0.909
2019/11/14 06:42,  0.962
2019/11/14 06:48,  0.869
2019/11/14 06:54,  0.849
2019/11/14 07:00,  0.766
2019/11/14 07:06,  0.843
2019/11/14 07:12,  0.864
2019/11/14 07:18,  0.886
2019/11/14 07:24,  0.978
2019/11/14 07:30,  0.981
2019/11/14 07:36,  0.828
2019/11/14 07:42,  0.820
2019/11/14 07:48,  0.855
2019/11/14 07:54,  0.824
2019/11/14 08:00,  0.879
2019/11/14 08:06,  0.861
2019/11/14 08:12,  0.914
2019/11/14 08:18,  0.875
2019/11/14 08:24,  0.937
2019/11/14 08:30,  0.987
2019/11/14 08:36,  0.942
2019/11/14 08:42,  0.915
2019/11/14 08:48,  0.944
2019/11/14 08:54,  0.927
2019/11/14 09:00,  0.958
2019/11/14 09:06,  0.856
2019/11/14 09:12,  0.895
2019/11/14 09:18,  0.937
2019/11/14 09:24,  0.995
2019/11/14 09:30,  0.944
2019/11/14 09:36,  0.965
2019/11/14 09:42,  0.970
2019/11/14 09:48,  0.975
2019/11/14 09:54,  0.899
2019/11/14 10:00,  0.938
2019/11/14 10:06,  0.895
2019/11/14 10:12,  0.894
2019/11/14 10:18,  0.979
2019/11/14 10:24,  0.919
2019/11/14 10:30,  0.892
2019/11/14 10:36,  0.928
2019/11/14 10:42,  0.879
2019/11/14 10:48,  0.926
2019/11/14 10:54,  0.909
2019/11/14 11:00,  0.958
2019/11/14 11:06,  0.948
2019/11/14 11:12,  0.930
2019/11/14 11:18,  0.922
2019/11/14 11:24,  0.868
2019/11/14 11:30,  0.931
2019/11/14 11:36,  0.912
2019/11/14 11:42,  0.902
2019/11/14 11:48,  0.949
2019/11/14 11:54,  0.918
2019/11/14 12:00,  0.920
2019/11/14 12:06,  0.956
2019/11/14 12:12,  0.930
2019/11/14 12:18,  1.000
2019/11/14 12:24,  1.003
2019/11/14 12:30,  1.009
2019/11/14 12:36,  0.987
2019/11/14 12:42,  1.034
2019/11/14 12:48,  1.062
2019/11/14 12:54,  1.020
2019/11/14 13:00,  0.979
2019/11/14 13:06,  1.031
2019/11/14 13:12,  0.993
2019/11/14 13:18,  1.033
2019/11/14 13:24,  1.063
2019/11/14 13:30,  1.081
2019/11/14 13:36,  1.173
2019/11/14 13:42,  1.135
2019/11/14 13:48,  1.103
2019/11/14 13:54,  1.168
2019/11/14 14:00,  1.165
2019/11/14 14:06,  1.150
2019/11/14 14:12,  1.148
2019/11/14 14:18,  1.155
2019/11/14 14:24,  1.085
2019/11/14 14:30,  1.195
2019/11/14 14:36,  1.120
2019/11/14 14:42,  1.083
2019/11/14 14:48,  1.164
2019/11/14 14:54,  1.073
2019/11/14 15:00,  1.134
2019/11/14 15:06,  1.135
2019/11/14 15:12,  1.135
2019/11/14 15:18,  1.081
2019/11/14 15:24,  1.125
2019/11/14 15:30,  1.182
2019/11/14 15:36,  1.134
2019/11/14 15:42,  1.145
2019/11/14 15:48,  1.104
2019/11/14 15:54,  1.136
2019/11/14 16:00,  1.146
2019/11/14 16:06,  1.139
2019/11/14 16:12,  1.090
2019/11/14 16:18,  1.162
2019/11/14 16:24,  1.052
2019/11/14 16:30,  1.199
2019/11/14 16:36,  1.130
2019/11/14 16:42,  1.130
2019/11/14 16:48,  1.167
2019/11/14 16:54,  1.084
2019/11/14 17:00,  1.225
2019/11/14 17:06,  1.129
2019/11/14 17:12,  1.077
2019/11/14 17:18,  1.226
2019/11/14 17:24,  1.137
2019/11/14 17:30,  1.189
2019/11/14 17:36,  1.098
2019/11/14 17:42,  1.042
2019/11/14 17:48,  1.137
2019/11/14 17:54,  1.102
2019/11/14 18:00,  1.109
2019/11/14 18:06,  1.119
2019/11/14 18:12,  1.100
2019/11/14 18:18,  1.074
2019/11/14 18:24,  1.180
2019/11/14 18:30,  1.171
2019/11/14 18:36,  1.132
2019/11/14 18:42,  1.127
2019/11/14 18:48,  1.114
2019/11/14 18:54,  1.081
2019/11/14 19:00,  1.053
2019/11/14 19:06,  1.019
2019/11/14 19:12,  1.050
2019/11/14 19:18,  1.049
2019/11/14 19:24,  1.043
2019/11/14 19:30,  0.971
2019/11/14 19:36,  0.947
2019/11/14 19:42,  1.051
2019/11/14 19:48,  1.096
2019/11/14 19:54,  1.058
2019/11/14 20:00,  1.074
2019/11/14 20:06,  1.003
2019/11/14 20:12,  1.058
2019/11/14 20:18,  1.045
2019/11/14 20:24,  0.974
2019/11/14 20:30,  0.893
2019/11/14 20:36,  0.917
2019/11/14 20:42,  0.892
2019/11/14 20:48,  0.935
2019/11/14 20:54,  0.902
2019/11/14 21:00,  0.950
2019/11/14 21:06,  0.993
2019/11/14 21:12,  0.984
2019/11/14 21:18,  0.953
2019/11/14 21:24,  1.029
2019/11/14 21:30,  1.021
2019/11/14 21:36,  0.922
2019/11/14 21:42,  0.981
2019/11/14 21:48,  0.997
2019/11/14 21:54,  0.988
2019/11/14 22:00,  1.013
2019/11/14 22:06,  1.018
2019/11/14 22:12,  1.036
2019/11/14 22:18,  1.092
2019/11/14 22:24,  1.053
2019/11/14 22:30,  1.083
2019/11/14 22:36,  1.099
2019/11/14 22:42,  0.996
2019/11/14 22:48,  0.962
2019/11/14 22:54,  0.988
2019/11/14 23:00,  0.941
2019/11/14 23:06,  1.002
2019/11/14 23:12,  1.050
2019/11/14 23:18,  1.033
2019/11/14 23:24,  1.007
2019/11/14 23:30,  1.000
2019/11/14 23:36,  1.056
2019/11/14 23:42,  1.033
2019/11/14 23:48,  1.095
2019/11/14 23:54,  1.019
2019/11/15 00:00,  0.947
2019/11/15 00:06,  1.020
2019/11/15 00:12,  0.999
2019/11/15 00:18,  1.065
2019/11/15 00:24,  0.994
2019/11/15 00:30,  0.994
2019/11/15 00:36,  1.047
2019/11/15 00:42,  1.026
2019/11/15 00:48,  1.033
2019/11/15 00:54,  1.038
2019/11/15 01:00,  0.976
2019/11/15 01:06,  1.015
2019/11/15 01:12,  0.968
2019/11/15 01:18,  0.970
2019/11/15 01:24,  0.970
2019/11/15 01:30,  1.062
2019/11/15 01:36,  1.065
2019/11/15 01:42,  1.083
2019/11/15 01:48,  1.045
2019/11/15 01:54,  1.068
2019/11/15 02:00,  0.979
2019/11/15 02:06,  0.932
2019/11/15 02:12,  0.945
2019/11/15 02:18,  0.935
2019/11/15 02:24,  0.864
2019/11/15 02:30,  0.930
2019/11/15 02:36,  0.943
2019/11/15 02:42,  0.952
2019/11/15 02:48,  0.946
2019/11/15 02:54,  0.970
2019/11/15 03:00,  0.959
2019/11/15 03:06,  1.009
2019/11/15 03:12,  0.889
2019/11/15 03:18,  0.969
2019/11/15 03:24,  1.006
2019/11/15 03:30,  1.015
2019/11/15 03:36,  1.048
2019/11/15 03:42,  1.002
2019/11/15 03:48,  1.005
2019/11/15 03:54,  1.025
2019/11/15 04:00,  1.010
2019/11/15 04:06,  1.023
2019/11/15 04:12,  1.030
2019/11/15 04:18,  1.021
2019/11/15 04:24,  1.114
2019/11/15 04:30,  1.041
2019/11/15 04:36,  0.908
2019/11/15 04:42,  0.978
2019/11/15 04:48,  0.965
2019/11/15 04:54,  0.998
2019/11/15 05:00,  1.016
2019/11/15 05:06,  1.032
2019/11/15 05:12,  0.938
2019/11/15 05:18,  0.978
2019/11/15 05:24,  1.050
2019/11/15 05:30,  1.008
2019/11/15 05:36,  0.985
2019/11/15 05:42,  0.937
2019/11/15 05:48,  0.950
2019/11/15 05:54,  0.928
2019/11/15 06:00,  0.982
2019/11/15 06:06,  0.976
2019/11/15 06:12,  0.967
2019/11/15 06:18,  1.005
2019/11/15 06:24,  1.008
2019/11/15 06:30,  1.005
2019/11/15 06:36,  0.986
2019/11/15 06:42,  0.955
2019/11/15 06:48,  0.948
2019/11/15 06:54,  0.949
2019/11/15 07:00,  0.964
2019/11/15 07:06,  0.953
2019/11/15 07:12,  0.964
2019/11/15 07:18,  0.929
2019/11/15 07:24,  0.936
2019/11/15 07:30,  0.944
2019/11/15 07:36,  1.008
2019/11/15 07:42,  0.967
2019/11/15 07:48,  0.973
2019/11/15 07:54,  1.019
2019/11/15 08:00,  0.955
2019/11/15 08:06,  0.891
2019/11/15 08:12,  0.973
2019/11/15 08:18,  0.941
2019/11/15 08:24,  0.919
2019/11/15 08:30,  0.939
2019/11/15 08:36,  1.043
2019/11/15 08:42,  1.019
2019/11/15 08:48,  1.038
2019/11/15 08:54,  1.010
2019/11/15 09:00,  1.054
2019/11/15 09:06,  1.088
2019/11/15 09:12,  1.051
2019/11/15 09:18,  1.087
2019/11/15 09:24,  1.087
2019/11/15 09:30,  1.028
2019/11/15 09:36,  1.040
2019/11/15 09:42,  1.002
2019/11/15 09:48,  0.988
2019/11/15 09:54,  1.022
2019/11/15 10:00,  1.036
2019/11/15 10:06,  0.938
2019/11/15 10:12,  0.999
2019/11/15 10:18,  1.028
2019/11/15 10:24,  1.044
2019/11/15 10:30,  1.008
2019/11/15 10:36,  0.986
2019/11/15 10:42,  1.106
2019/11/15 10:48,  1.100
2019/11/15 10:54,  1.059
2019/11/15 11:00,  1.078
2019/11/15 11:06,  1.060
2019/11/15 11:12,  1.013
2019/11/15 11:18,  0.897
2019/11/15 11:24,  0.906
2019/11/15 11:30,  0.903
2019/11/15 11:36,  0.888
2019/11/15 11:42,  0.976
2019/11/15 11:48,  0.945
2019/11/15 13:06,  1.039
2019/11/15 13:12,  0.988
2019/11/15 13:18,  1.073
2019/11/15 13:24,  1.078
2019/11/15 13:30,  1.022
2019/11/15 13:36,  1.085
2019/11/15 13:42,  1.111
2019/11/15 13:48,  1.105
2019/11/15 13:54,  1.068
2019/11/15 14:00,  1.149
2019/11/15 14:06,  1.118
2019/11/15 14:12,  1.191
2019/11/15 14:18,  1.214
2019/11/15 14:24,  1.152
2019/11/15 14:30,  1.207
2019/11/15 14:36,  1.151
2019/11/15 14:42,  1.142
2019/11/15 14:48,  1.121
2019/11/15 14:54,  1.046
2019/11/15 15:00,  1.061
2019/11/15 15:06,  0.990
2019/11/15 15:12,  0.992
2019/11/15 15:18,  0.975
2019/11/15 15:24,  0.976
2019/11/15 15:30,  1.017
2019/11/15 15:36,  1.116
2019/11/15 15:42,  1.071
2019/11/15 15:48,  1.075
2019/11/15 15:54,  1.112
2019/11/15 16:00,  1.005
2019/11/15 16:06,  1.039
2019/11/15 16:12,  1.059
2019/11/15 16:18,  1.029
2019/11/15 16:24,  1.017
2019/11/15 16:30,  1.025
2019/11/15 16:42,  1.031
2019/11/15 16:48,  1.054
2019/11/15 16:54,  1.034
2019/11/15 17:00,  1.048
2019/11/15 17:06,  0.988
2019/11/15 17:12,  1.056
2019/11/15 17:18,  1.119
2019/11/15 17:24,  1.114
2019/11/15 17:30,  1.006
2019/11/15 17:36,  1.071
2019/11/15 17:42,  1.036
2019/11/15 17:48,  1.044
2019/11/15 17:54,  1.026
2019/11/15 18:00,  0.998
2019/11/15 18:06,  1.007
2019/11/15 18:12,  0.998
2019/11/15 18:18,  0.958
2019/11/15 18:24,  1.001
2019/11/15 18:30,  1.016
2019/11/15 18:36,  1.050
2019/11/15 18:42,  1.084
2019/11/15 18:48,  1.097
2019/11/15 18:54,  1.102
2019/11/15 19:00,  1.076
2019/11/15 19:06,  1.083
2019/11/15 19:12,  1.117
2019/11/15 19:18,  1.043
2019/11/15 19:24,  1.071
2019/11/15 19:30,  1.081
2019/11/15 19:36,  1.084
2019/11/15 19:42,  1.056
2019/11/15 19:48,  1.026
2019/11/15 19:54,  0.963
2019/11/15 20:00,  1.035
2019/11/15 20:06,  0.979
2019/11/15 20:12,  1.028
2019/11/15 20:18,  1.024
2019/11/15 20:24,  1.042
2019/11/15 20:30,  1.016
2019/11/15 20:36,  0.977
2019/11/15 20:42,  0.986
2019/11/15 20:48,  0.950
2019/11/15 20:54,  0.948
2019/11/15 21:00,  1.058
2019/11/15 21:06,  1.045
2019/11/15 21:12,  1.016
2019/11/15 21:18,  1.071
2019/11/15 21:24,  1.056
2019/11/15 21:30,  1.042
2019/11/15 21:36,  1.013
2019/11/15 21:42,  1.009
2019/11/15 21:48,  1.016
2019/11/15 21:54,  0.961
2019/11/15 22:00,  1.054
2019/11/15 22:06,  1.023
2019/11/15 22:12,  1.045
2019/11/15 22:18,  1.015
2019/11/15 22:24,  1.021
2019/11/15 22:30,  1.002
2019/11/15 22:36,  1.088
2019/11/15 22:42,  1.047
2019/11/15 22:48,  1.091
2019/11/15 22:54,  1.012
2019/11/15 23:00,  0.985
2019/11/15 23:06,  1.081
2019/11/15 23:12,  1.017
2019/11/15 23:18,  1.052
2019/11/15 23:24,  0.987
2019/11/15 23:30,  0.940
2019/11/15 23:36,  0.953
2019/11/15 23:42,  0.976
2019/11/15 23:48,  0.962
2019/11/15 23:54,  0.955
2019/11/16 00:00,  0.938
2019/11/16 00:06,  0.973
2019/11/16 00:12,  0.983
2019/11/16 00:18,  0.921
2019/11/16 00:24,  0.949
2019/11/16 00:30,  0.951
2019/11/16 00:36,  1.004
2019/11/16 00:42,  1.031
2019/11/16 00:48,  1.032
2019/11/16 00:54,  0.997
2019/11/16 01:00,  0.929
2019/11/16 01:06,  1.005
2019/11/16 01:12,  0.979
2019/11/16 01:18,  0.989
2019/11/16 01:24,  0.968
2019/11/16 01:30,  0.957
2019/11/16 01:36,  0.951
2019/11/16 01:42,  0.989
2019/11/16 01:48,  1.002
2019/11/16 01:54,  0.993
2019/11/16 02:00,  1.016
2019/11/16 02:06,  1.018
2019/11/16 02:12,  1.034
2019/11/16 02:18,  0.973
2019/11/16 02:24,  0.907
2019/11/16 02:30,  0.959
2019/11/16 02:36,  0.969
2019/11/16 02:42,  0.960
2019/11/16 02:48,  0.950
2019/11/16 02:54,  0.945
2019/11/16 03:00,  0.994
2019/11/16 03:06,  1.002
2019/11/16 03:12,  0.967
2019/11/16 03:18,  0.927
2019/11/16 03:24,  0.937
2019/11/16 03:30,  0.933
2019/11/16 03:36,  0.927
2019/11/16 03:42,  0.880
2019/11/16 03:48,  0.997
2019/11/16 03:54,  0.987
2019/11/16 04:00,  1.027
2019/11/16 04:06,  0.947
2019/11/16 04:12,  0.839
2019/11/16 04:18,  0.876
2019/11/16 04:24,  0.960
2019/11/16 04:30,  0.866
2019/11/16 04:36,  0.948
2019/11/16 04:42,  0.904
2019/11/16 04:48,  0.928
2019/11/16 04:54,  0.955
2019/11/16 05:00,  0.887
2019/11/16 05:06,  0.927
2019/11/16 05:12,  0.839
2019/11/16 05:18,  0.805
2019/11/16 05:24,  0.841
2019/11/16 05:30,  0.759
2019/11/16 05:36,  0.782
2019/11/16 05:42,  0.669
2019/11/16 05:48,  0.809
2019/11/16 05:54,  0.750
2019/11/16 06:00,  0.792
2019/11/16 06:06,  0.829
2019/11/16 06:12,  0.872
2019/11/16 06:18,  0.876
2019/11/16 06:24,  0.906
2019/11/16 06:30,  0.840
2019/11/16 06:36,  0.802
2019/11/16 06:42,  0.792
2019/11/16 06:48,  0.776
2019/11/16 06:54,  0.689
2019/11/16 07:00,  0.717
2019/11/16 07:06,  0.723
2019/11/16 07:12,  0.717
2019/11/16 07:18,  0.803
2019/11/16 07:24,  0.786
2019/11/16 07:30,  0.810
2019/11/16 07:36,  0.886
2019/11/16 07:42,  0.882
2019/11/16 07:48,  0.852
2019/11/16 07:54,  0.742
2019/11/16 08:00,  0.787
2019/11/16 08:06,  0.867
2019/11/16 08:12,  0.770
2019/11/16 08:18,  0.802
2019/11/16 08:24,  0.804
2019/11/16 08:30,  0.767
2019/11/16 08:36,  0.787
2019/11/16 08:42,  0.789
2019/11/16 08:48,  0.829
2019/11/16 08:54,  0.717
2019/11/16 09:00,  0.690
2019/11/16 09:06,  0.742
2019/11/16 09:12,  0.766
2019/11/16 09:18,  0.742
2019/11/16 09:24,  0.769
2019/11/16 09:30,  0.747
2019/11/16 09:36,  0.709
2019/11/16 09:42,  0.741
2019/11/16 09:48,  0.730
2019/11/16 09:54,  0.777
2019/11/16 10:00,  0.815
2019/11/16 10:06,  0.712
2019/11/16 10:12,  0.727
2019/11/16 10:18,  0.784
2019/11/16 10:24,  0.856
2019/11/16 10:30,  0.725
2019/11/16 10:36,  0.808
2019/11/16 10:42,  0.749
2019/11/16 10:48,  0.733
2019/11/16 10:54,  0.727
2019/11/16 11:00,  0.772
2019/11/16 11:06,  0.850
2019/11/16 11:12,  0.817
2019/11/16 11:18,  0.819
2019/11/16 11:24,  0.768
2019/11/16 11:30,  0.789
2019/11/16 11:36,  0.747
2019/11/16 11:42,  0.858
2019/11/16 11:48,  0.894
2019/11/16 11:54,  0.830
2019/11/16 12:00,  0.838
2019/11/16 12:06,  0.846
2019/11/16 12:12,  0.828
2019/11/16 12:18,  0.784
2019/11/16 12:24,  0.746
2019/11/16 12:30,  0.808
2019/11/16 12:36,  0.768
2019/11/16 12:42,  0.815
2019/11/16 12:48,  0.819
2019/11/16 12:54,  0.822
2019/11/16 13:00,  0.787
2019/11/16 13:06,  0.865
2019/11/16 13:12,  0.906
2019/11/16 13:18,  0.965
2019/11/16 13:24,  0.893
2019/11/16 13:30,  0.907
2019/11/16 13:36,  0.769
2019/11/16 13:42,  0.818
2019/11/16 13:48,  0.837
2019/11/16 13:54,  0.876
2019/11/16 14:00,  0.838
2019/11/16 14:06,  0.876
2019/11/16 14:12,  0.880
2019/11/16 14:18,  0.936
2019/11/16 14:24,  0.923
2019/11/16 14:30,  0.944
2019/11/16 14:36,  1.004
2019/11/16 14:42,  0.899
2019/11/16 14:48,  0.915
2019/11/16 14:54,  0.886
2019/11/16 15:00,  0.813
2019/11/16 15:06,  0.860
2019/11/16 15:12,  0.798
2019/11/16 15:18,  0.778
2019/11/16 15:24,  0.765
2019/11/16 15:30,  0.830
2019/11/16 15:36,  0.793
2019/11/16 15:42,  0.828
2019/11/16 15:48,  0.892
2019/11/16 15:54,  0.906
2019/11/16 16:00,  0.936
2019/11/16 16:06,  0.947
2019/11/16 16:12,  0.891
2019/11/16 16:18,  0.911
2019/11/16 16:24,  0.881
2019/11/16 16:30,  0.871
2019/11/16 16:36,  0.935
2019/11/16 16:42,  0.932
2019/11/16 16:48,  0.904
2019/11/16 16:54,  0.954
2019/11/16 17:00,  0.991
2019/11/16 17:06,  0.988
2019/11/16 17:12,  0.963
2019/11/16 17:18,  0.954
2019/11/16 17:24,  1.010
2019/11/16 17:30,  1.029
2019/11/16 17:36,  1.004
2019/11/16 17:42,  0.951
2019/11/16 17:48,  1.014
2019/11/16 17:54,  0.954
2019/11/16 18:00,  0.966
2019/11/16 18:06,  0.972
2019/11/16 18:12,  0.984
2019/11/16 18:18,  0.955
2019/11/16 18:24,  0.912
2019/11/16 18:30,  0.912
2019/11/16 18:36,  0.889
2019/11/16 18:42,  0.978
2019/11/16 18:48,  0.917
2019/11/16 18:54,  0.942
2019/11/16 19:00,  0.977
2019/11/16 19:06,  0.894
2019/11/16 19:12,  0.913
2019/11/16 19:18,  0.933
2019/11/16 19:24,  0.946
2019/11/16 19:30,  0.960
2019/11/16 19:36,  0.894
2019/11/16 19:42,  0.789
2019/11/16 19:48,  0.845
2019/11/16 19:54,  0.835
2019/11/16 20:00,  0.883
2019/11/16 20:06,  0.820
2019/11/16 20:12,  0.834
2019/11/16 20:18,  0.882
2019/11/16 20:24,  0.865
2019/11/16 20:30,  0.892
2019/11/16 20:36,  0.866
2019/11/16 20:42,  0.931
2019/11/16 20:48,  0.925
2019/11/16 20:54,  0.927
2019/11/16 21:00,  0.878
2019/11/16 21:06,  0.863
2019/11/16 21:12,  0.892
2019/11/16 21:18,  0.917
2019/11/16 21:24,  0.883
2019/11/16 21:30,  0.892
2019/11/16 21:36,  0.947
2019/11/16 21:42,  0.883
2019/11/16 21:48,  0.951
2019/11/16 21:54,  0.986
2019/11/16 22:00,  1.003
2019/11/16 22:06,  0.981
2019/11/16 22:12,  1.011
2019/11/16 22:18,  0.999
2019/11/16 22:24,  0.948
2019/11/16 22:30,  0.976
2019/11/16 22:36,  0.926
2019/11/16 22:42,  0.942
2019/11/16 22:48,  0.964
2019/11/16 22:54,  0.945
2019/11/16 23:00,  0.898
2019/11/16 23:06,  0.902
2019/11/16 23:12,  0.915
2019/11/16 23:18,  0.882
2019/11/16 23:24,  0.956
2019/11/16 23:30,  0.991
2019/11/16 23:36,  0.926
2019/11/16 23:42,  0.962
2019/11/16 23:48,  0.961
2019/11/16 23:54,  0.907
2019/11/17 00:00,  1.017
2019/11/17 00:06,  0.920
2019/11/17 00:12,  0.864
2019/11/17 00:18,  0.969
2019/11/17 00:24,  1.026
2019/11/17 00:30,  0.983
2019/11/17 00:36,  1.015
2019/11/17 00:42,  0.980
2019/11/17 00:48,  0.989
2019/11/17 00:54,  0.894
2019/11/17 01:00,  0.932
2019/11/17 01:06,  0.780
2019/11/17 01:12,  0.920
2019/11/17 01:18,  0.943
2019/11/17 01:24,  0.946
2019/11/17 01:30,  0.897
2019/11/17 01:36,  0.868
2019/11/17 01:42,  0.993
2019/11/17 01:48,  0.929
2019/11/17 01:54,  0.971
2019/11/17 02:00,  1.021
2019/11/17 02:06,  0.953
2019/11/17 02:12,  0.991
2019/11/17 02:18,  0.917
2019/11/17 02:24,  0.885
2019/11/17 02:30,  0.959
2019/11/17 02:36,  0.943
2019/11/17 02:42,  0.972
2019/11/17 02:48,  0.879
2019/11/17 02:54,  1.035
2019/11/17 03:00,  0.921
2019/11/17 03:06,  0.958
2019/11/17 03:12,  0.811
2019/11/17 03:18,  1.005
2019/11/17 03:24,  1.068
2019/11/17 03:30,  0.994
2019/11/17 03:36,  0.933
2019/11/17 03:42,  1.002
2019/11/17 03:48,  0.969
2019/11/17 03:54,  0.923
2019/11/17 04:00,  0.887
2019/11/17 04:06,  0.932
2019/11/17 04:12,  0.709
2019/11/17 04:18,  0.806
2019/11/17 04:24,  0.789
2019/11/17 04:30,  0.895
2019/11/17 04:36,  0.897
2019/11/17 04:42,  0.912
2019/11/17 04:48,  0.918
2019/11/17 04:54,  0.915
2019/11/17 05:00,  0.957
2019/11/17 05:06,  0.843
2019/11/17 05:12,  0.837
2019/11/17 05:18,  0.755
2019/11/17 05:24,  0.710
2019/11/17 05:30,  0.711
2019/11/17 05:36,  0.627
2019/11/17 05:42,  0.710
2019/11/17 05:48,  0.672
2019/11/17 05:54,  0.738
2019/11/17 06:00,  0.729
2019/11/17 06:06,  0.651
2019/11/17 06:12,  0.706
2019/11/17 06:18,  0.759
2019/11/17 06:24,  0.799
2019/11/17 06:30,  0.794
2019/11/17 06:36,  0.853
2019/11/17 06:42,  0.795
2019/11/17 06:48,  0.838
2019/11/17 06:54,  0.742
2019/11/17 07:00,  0.760
2019/11/17 07:06,  0.754
2019/11/17 07:12,  0.736
2019/11/17 07:18,  0.781
2019/11/17 07:24,  0.708
2019/11/17 07:30,  0.666
2019/11/17 07:36,  0.760
2019/11/17 07:42,  0.756
2019/11/17 07:48,  0.751
2019/11/17 07:54,  0.711
2019/11/17 08:00,  0.806
2019/11/17 08:06,  0.787
2019/11/17 08:12,  0.814
2019/11/17 08:18,  0.824
2019/11/17 08:24,  0.901
2019/11/17 08:30,  0.872
2019/11/17 08:36,  0.895
2019/11/17 08:42,  0.838
2019/11/17 08:48,  0.888
2019/11/17 08:54,  0.854
2019/11/17 09:00,  0.901
2019/11/17 09:06,  0.800
2019/11/17 09:12,  0.850
2019/11/17 09:18,  0.821
2019/11/17 09:24,  0.799
2019/11/17 09:30,  0.788
2019/11/17 09:36,  0.819
2019/11/17 09:42,  0.853
2019/11/17 09:48,  0.806
2019/11/17 09:54,  0.897
2019/11/17 10:00,  0.841
2019/11/17 10:06,  0.754
2019/11/17 10:12,  0.858
2019/11/17 10:18,  0.788
2019/11/17 10:24,  0.720
2019/11/17 10:30,  0.679
2019/11/17 10:36,  0.697
2019/11/17 10:42,  0.750
2019/11/17 10:48,  0.709
2019/11/17 10:54,  0.742
2019/11/17 11:00,  0.706
2019/11/17 11:06,  0.787
2019/11/17 11:12,  0.812
2019/11/17 11:18,  0.787
2019/11/17 11:24,  0.833
2019/11/17 11:30,  0.784
2019/11/17 11:36,  0.802
2019/11/17 11:42,  0.961
2019/11/17 11:48,  0.908
2019/11/17 11:54,  0.908
2019/11/17 12:00,  0.939
2019/11/17 12:06,  0.820
2019/11/17 12:12,  0.882
2019/11/17 12:18,  0.860
2019/11/17 12:24,  0.941
2019/11/17 12:30,  0.961
2019/11/17 12:36,  0.912
2019/11/17 12:42,  0.846
2019/11/17 12:48,  0.841
2019/11/17 12:54,  0.875
2019/11/17 13:00,  0.893
2019/11/17 13:06,  0.912
2019/11/17 13:12,  0.898
2019/11/17 13:18,  0.821
2019/11/17 13:24,  0.851
2019/11/17 13:30,  0.829
2019/11/17 13:36,  0.879
2019/11/17 13:42,  0.831
2019/11/17 13:48,  0.869
2019/11/17 13:54,  0.798
2019/11/17 14:00,  0.848
2019/11/17 14:06,  0.832
2019/11/17 14:12,  0.894
2019/11/17 14:18,  0.925
2019/11/17 14:24,  0.900
2019/11/17 14:30,  0.962
2019/11/17 14:36,  0.939
2019/11/17 14:42,  0.931
2019/11/17 14:48,  1.075
2019/11/17 14:54,  0.948
2019/11/17 15:00,  0.968
2019/11/17 15:06,  0.937
2019/11/17 15:12,  0.913
2019/11/17 15:18,  1.014
2019/11/17 15:24,  0.947
2019/11/17 15:30,  0.930
2019/11/17 15:36,  0.986
2019/11/17 15:42,  1.008
2019/11/17 15:48,  0.989
2019/11/17 15:54,  0.977
2019/11/17 16:00,  0.992
2019/11/17 16:06,  0.957
2019/11/17 16:12,  0.975
2019/11/17 16:18,  0.938
2019/11/17 16:24,  0.956
2019/11/17 16:30,  0.946
2019/11/17 16:36,  0.976
2019/11/17 16:42,  0.911
2019/11/17 16:48,  0.920
2019/11/17 16:54,  0.984
2019/11/17 17:00,  0.960
2019/11/17 17:06,  0.973
2019/11/17 17:12,  0.962
2019/11/17 17:18,  0.876
2019/11/17 17:24,  0.881
2019/11/17 17:30,  0.936
2019/11/17 17:36,  0.951
2019/11/17 17:42,  0.962
2019/11/17 17:48,  0.914
2019/11/17 17:54,  0.862
2019/11/17 18:00,  0.908
2019/11/17 18:06,  0.876
2019/11/17 18:12,  0.881
2019/11/17 18:18,  0.896
2019/11/17 18:24,  0.847
2019/11/17 18:30,  0.844
2019/11/17 18:36,  0.834
2019/11/17 18:42,  0.758
2019/11/17 18:48,  0.784
2019/11/17 18:54,  0.854
2019/11/17 19:00,  0.828
2019/11/17 19:06,  0.918
2019/11/17 19:12,  0.884
2019/11/17 19:18,  0.906
2019/11/17 19:24,  0.810
2019/11/17 19:30,  0.863
2019/11/17 19:36,  0.795
2019/11/17 19:42,  0.822
2019/11/17 19:48,  0.868
2019/11/17 19:54,  0.891
2019/11/17 20:00,  0.904
2019/11/17 20:06,  0.842
2019/11/17 20:12,  0.905
2019/11/17 20:18,  0.918
2019/11/17 20:24,  0.956
2019/11/17 20:30,  0.912
2019/11/17 20:36,  0.980
2019/11/17 20:42,  0.897
2019/11/17 20:48,  0.955
2019/11/17 20:54,  0.906
2019/11/17 21:00,  0.920
2019/11/17 21:06,  0.991
2019/11/17 21:12,  0.927
2019/11/17 21:18,  0.907
2019/11/17 21:24,  0.848